Find Starlink 31778

NORAD ID: 59602 Int'l Des: 2024-080 Owner: SPXS Country: US Constellation: starlink operational
LEOCIRCULAR

リアルタイム位置

3D地球を読み込み中...

Starlink 31778について

説明を読み込み中...

次回通過

Passes for default location (London). Set your location on the main map for personalized predictions.

高度履歴

Loading altitude history...

軌道要素

1 59602U 24080B 26127.17497054 -.00000923 00000-0 -24047-4 0 9998
2 59602 42.9992 64.4650 0000845 277.5280 82.5475 15.27569165113511
Epoch: May 7, 2026 • Age: 9 hours

現在のステータス

高度 483.8 km
速度 7.62 km/s
衛星直下点 -5.60°S, 169.93°W
打ち上げ日 Apr 28, 2024
運用期間 2 years
タイプ internet

技術仕様

分類 Payload
質量 730.00 kg
乾燥質量 700.00 kg
総質量 730.00 kg
長さ 0.30 m
直径 4.10 m
スパン 29.00 m
形状 Box + pan
製造者 SPXS
バスタイプ Starlink V2M
フェーズステータス In Orbit
所有者/国 SPXS/US

Most Searched